Regional Weather Roundup
Issued by NWS

Home | Current Version | Previous Version | Text Only | Print | Product List | Glossary On
Versions: 1 2 3 4 5 6 7 8 9 10 11 12 13 14 15 16 17 18 19 20 21 22 23 24 25 26 27 28 29 30 31 32 33 34 35 36 37 38 39 40 41 42 43 44 45 46 47 48 49 50
000
ASUS43 KMKX 241600
RWRWI

WISCONSIN REGIONAL WEATHER ROUNDUP
NATIONAL WEATHER SERVICE MILWAUKEE/SULLIVAN WI
1100 AM CDT MON JUL 24 2017

NOTE: "FAIR" INDICATES FEW OR NO CLOUDS BELOW 12,000 FEET WITH NO
SIGNIFICANT WEATHER AND/OR OBSTRUCTIONS TO VISIBILITY.

WIZ001-002-006>008-014>016-023>028-241700-
NORTHWEST WISCONSIN

CITY           SKY/WX    TMP DP  RH WIND       PRES   REMARKS
SUPERIOR ARPT  NOT AVBL
ASHLAND        SUNNY     68  59  73 CALM      30.11F
HAYWARD        SUNNY     68  53  58 E8        30.11S
SIREN          SUNNY     64  57  77 E3        30.10S
CUMBERLAND     MOSUNNY   63  55  77 E5        30.10F
RICE LAKE      PTSUNNY   63  55  76 E5        30.12F
CHETEK         CLOUDY    60  56  86 E5        30.11F
LADYSMITH      CLOUDY    60  54  80 S3        30.14S
EAU CLAIRE     NOT AVBL
MENOMONIE      PTSUNNY   65  57  74 E7        30.09F
NEW RICHMOND   MOSUNNY   68  56  64 CALM      30.09S
OSCEOLA        PTSUNNY   70  58  66 E5        30.11F
$$

WIZ003>005-009-010-017-018-241700-
NORTH CENTRAL WISCONSIN

CITY           SKY/WX    TMP DP  RH WIND       PRES   REMARKS
MANITOWISH WTR SUNNY     67  51  56 SE7       30.13S
ARBOR VITAE    SUNNY     68  52  56 SE8       30.12S
WOODRUFF       SUNNY     68  52  56 SE8       30.12S
RHINELANDER    SUNNY     65  53  65 S6        30.13S
EAGLE RIVER    SUNNY     66  49  54 E6        30.13R
LAND O LAKES   SUNNY     68  49  49 SE8       30.14R
PHILLIPS       SUNNY     66  53  63 SE6       30.11F
TOMAHAWK         N/A     63  53  68 NE3       30.13S
MEDFORD        SUNNY     64  55  72 CALM      30.11S
MERRILL        NOT AVBL
$$

WIZ029-030-035-036-043>047-241700-
CENTRAL WISCONSIN

CITY           SKY/WX    TMP DP  RH WIND       PRES   REMARKS
WAUSAU         SUNNY     67  53  61 E8        30.09S
MOSINEE        MOSUNNY   66  55  68 VRB6      30.12R
MARSHFIELD     MOSUNNY   68  55  63 E6        30.10R
STEVENS POINT  PTSUNNY   66  53  64 E6        30.11R
WAUPACA        MOSUNNY   70  55  57 NE7       30.09F
WAUTOMA        MOSUNNY   67  56  67 NE5       30.09S
WISC RAPIDS    PTSUNNY   69  56  62 SE7       30.11R
CAMP DOUGLAS   NOT AVBL
$$

WIZ011>013-019>022-031-037>040-048>050-241700-
NORTHEAST WISCONSIN

CITY           SKY/WX    TMP DP  RH WIND       PRES   REMARKS
ANTIGO         SUNNY     66  52  60 E6        30.12S
SHAWANO        SUNNY     69  56  62 NE6       30.10R
OCONTO         SUNNY     68  53  59 E8        30.09S
STURGEON BAY     N/A     66  58  75 N12       30.09S
GREEN BAY      MOSUNNY   68  59  73 N12       30.10R
MANITOWOC      NOT AVBL
APPLETON       MOSUNNY   66  52  59 NE7       30.08R
CLINTONVILLE   MOSUNNY  N/A N/A N/A E6        30.09S
OSHKOSH        PTSUNNY   68  57  68 E9        30.08R
$$

WIZ032>034-041-042-053>061-241700-
SOUTHWEST WISCONSIN

CITY           SKY/WX    TMP DP  RH WIND       PRES   REMARKS
LA CROSSE      CLOUDY    67  57  70 SE6       30.09R
SPARTA         CLOUDY    65  56  72 E5        30.10S
VIROQUA        CLOUDY    63  58  83 CALM      30.10R
BOSCOBEL       CLOUDY    70  58  65 NE5       30.08R
PRAIRIE DU CHI CLOUDY    67  56  68 NE3       30.07S
PLATTEVILLE    CLOUDY    68  61  78 NE9       30.08R
$$

WIZ056-057-062-063-064-067-068-241700-
SOUTH CENTRAL WISCONSIN

CITY           SKY/WX    TMP DP  RH WIND       PRES   REMARKS
REEDSBURG      CLOUDY    64  58  79 E7        30.09R
BARABOO/DELLS  CLOUDY    65  55  69 E7        30.09R
LONE ROCK      CLOUDY    67  57  70 E7        30.08R
MINERAL POINT  CLOUDY    68  61  77 NE6       30.09R
MADISON        PTSUNNY   66  57  72 NE8       30.08R
MIDDLETON      CLOUDY    66  58  73 NE7       30.09R
WATERTOWN      PTSUNNY   69  59  70 E9        30.06S
MONROE         CLOUDY    68  57  68 NE8G16    30.07R
JANESVILLE     CLOUDY    70  57  64 NE9       30.06R
$$

WIZ051-052-058>065-066-070>072-241700-
SOUTHEAST WISCONSIN

CITY           SKY/WX    TMP DP  RH WIND       PRES   REMARKS
MILWAUKEE      PTSUNNY   69  59  70 N15G24    30.06R
WAUKESHA       MOSUNNY   66  54  63 E12G18    30.07R
MILWAUKEE/TIMM PTSUNNY   66  52  59 NE16G22   30.07R
RACINE         PTSUNNY   70  60  70 NE16      30.07R
KENOSHA        MOSUNNY   71  58  63 NE15G23   30.06R
FOND DU LAC    PTSUNNY   69  55  60 NE7       30.08R
SHEBOYGAN      PTSUNNY   67  59  75 NE14      30.07S
WEST BEND      PTSUNNY   66  55  68 NE10      30.07R
JUNEAU           N/A     67  56  67 NE7       30.08R
$$

LSZ147-162-241700-
LAKE SUPERIOR

STATION/POSITION TIME  TEMP    WIND        PRES    WAVE
                       AIR SEA DIR/SP/G            HT/PER
                 (UTC) (F)     (DEG/KT/KT) (MB)    (FT/S)
W MID LAKE BUOY  1450   49 48  240/  6/  8 1019.9F   0
DEVILS ISLAND    1500   57     240/  1/  2 1019.8F
PORT WING        1420   56     340/  2/  4   N/A
SAXON HARBOR     1540   59      10/  3/  5 1019.3S
$$

LMZ867-665-643>646-241700-
LAKE MICHIGAN

STATION/POSITION TIME  TEMP    WIND        PRES    WAVE
                       AIR SEA DIR/SP/G            HT/PER
                 (UTC) (F)     (DEG/KT/KT) (MB)    (FT/S)
CHAMBERS ISLAND  1540   65      20/ 10/ 12 1018.3S
S GREEN BAY BUOY 1530   64 72   50/ 14/ 17 1018.5S
N MID LAKE BUOY  1450   63 66   10/ 17/ 21 1018.2S   3/ 4
NORTHPORT PIER   1540   65     340/ 10/ 12 1018.6S
KEWAUNEE LAKESHO 1530   66      40/  9/ 12 1017.7R
SHEBOYGAN LAKESH 1500   64      20/ 20/ 23 1017.7R
PORT WASHINGTON  1540   68      40/ 13/ 18 1019.0R
ATWATER BUOY     1409   66 68   40/ 19/ 23 1017.2R
MILWAUKEE LAKESH 1540   65      20/ 17/ 19   N/A
S MID LAKE BUOY  1450   66 70   30/ 17/ 19 1016.1R   4/ 5
KENOSHA   LAKESH 1500   66      30/ 15/ 20 1016.9
$$

TC  - TEMPERATURE IN CELSIUS
VSB - VISIBILITY IN STATUTE MILES
WCI - WIND CHILL INDEX
HX  - HEAT INDEX





USA.gov is the U.S. government's official web portal to all federal, state and local government web resources and services.